QPF
0.00 0.01 0.01 0.02 0.05 0.06 0.05 0.05 0.04 0.03 0.02 0.03 0.04 0.04 0.05 0.06 0.07 0.08 0.09 0.10 0.10 0.10 0.10 0.10 0.10 0.10 0.12 0.11 0.09 0.10 0.10 0.11 0.11 0.11 0.10 0.08 0.05 0.03 0.02 0.01 0.01 0.01 0.01
0.01 0.01 0.02 0.03 0.04 0.05 0.06 0.05 0.04 0.05 0.04 0.04 0.06 0.06 0.05 0.06 0.07 0.09 0.09 0.09 0.12 0.12 0.11 0.10 0.10 0.10 0.11 0.11 0.09 0.09 0.11 0.12 0.14 0.15 0.14 0.13 0.11 0.07 0.03 0.02 0.01 0.01 0.01
0.02 0.03 0.03 0.04 0.04 0.04 0.05 0.05 0.06 0.08 0.07 0.04 0.05 0.06 0.06 0.07 0.08 0.10 0.11 0.09 0.10 0.11 0.12 0.12 0.12 0.11 0.10 0.11 0.10 0.08 0.09 0.10 0.11 0.12 0.13 0.13 0.13 0.11 0.08 0.05 0.02 0.01 0.01
0.02 0.04 0.04 0.04 0.05 0.06 0.07 0.07 0.09 0.10 0.09 0.08 0.07 0.06 0.06 0.07 0.08 0.09 0.11 0.11 0.10 0.11 0.13 0.14 0.16 0.16 0.13 0.12 0.11 0.10 0.08 0.09 0.11 0.11 0.10 0.08 0.07 0.08 0.09 0.08 0.05 0.03 0.02
0.03 0.04 0.04 0.04 0.04 0.05 0.08 0.08 0.07 0.09 0.10 0.11 0.09 0.07 0.07 0.07 0.08 0.09 0.12 0.14 0.12 0.11 0.12 0.16 0.18 0.19 0.15 0.13 0.12 0.12 0.11 0.10 0.09 0.09 0.09 0.09 0.08 0.07 0.06 0.06 0.05 0.04 0.03
0.04 0.05 0.04 0.03 0.03 0.03 0.04 0.05 0.05 0.07 0.08 0.09 0.10 0.09 0.08 0.08 0.09 0.10 0.13 0.16 0.17 0.16 0.12 0.14 0.17 0.20 0.19 0.17 0.16 0.15 0.12 0.09 0.08 0.08 0.08 0.08 0.08 0.06 0.05 0.05 0.04 0.04 0.03
0.05 0.04 0.03 0.03 0.04 0.04 0.04 0.04 0.04 0.06 0.07 0.07 0.07 0.06 0.06 0.06 0.09 0.10 0.13 0.15 0.16 0.16 0.12 0.10 0.12 0.15 0.17 0.15 0.14 0.14 0.13 0.12 0.11 0.10 0.09 0.09 0.07 0.06 0.06 0.06 0.05 0.05 0.04
0.06 0.05 0.04 0.04 0.05 0.05 0.05 0.05 0.05 0.05 0.05 0.05 0.05 0.05 0.05 0.05 0.06 0.09 0.12 0.12 0.13 0.13 0.11 0.09 0.08 0.11 0.14 0.13 0.14 0.12 0.11 0.10 0.10 0.10 0.10 0.11 0.11 0.10 0.10 0.10 0.09 0.09 0.07
0.06 0.07 0.06 0.04 0.06 0.07 0.06 0.06 0.06 0.05 0.05 0.05 0.05 0.05 0.05 0.07 0.08 0.10 0.11 0.11 0.12 0.13 0.11 0.08 0.07 0.08 0.11 0.11 0.10 0.11 0.10 0.09 0.09 0.08 0.08 0.08 0.09 0.10 0.11 0.11 0.11 0.12 0.10
0.06 0.07 0.08 0.06 0.06 0.07 0.08 0.08 0.08 0.06 0.06 0.06 0.05 0.07 0.07 0.08 0.11 0.11 0.11 0.13 0.12 0.12 0.10 0.08 0.07 0.07 0.08 0.08 0.08 0.07 0.08 0.08 0.07 0.06 0.06 0.06 0.07 0.08 0.09 0.10 0.10 0.10 0.10
0.06 0.06 0.07 0.06 0.07 0.09 0.10 0.10 0.09 0.08 0.08 0.08 0.07 0.08 0.07 0.08 0.11 0.11 0.09 0.11 0.12 0.10 0.09 0.07 0.06 0.06 0.06 0.06 0.07 0.07 0.07 0.06 0.06 0.06 0.06 0.05 0.05 0.06 0.07 0.07 0.07 0.07 0.07
0.05 0.05 0.06 0.06 0.08 0.09 0.11 0.12 0.12 0.09 0.10 0.10 0.07 0.07 0.08 0.09 0.12 0.12 0.10 0.10 0.11 0.10 0.08 0.06 0.05 0.05 0.05 0.06 0.06 0.07 0.07 0.06 0.06 0.06 0.06 0.06 0.06 0.06 0.06 0.07 0.07 0.07 0.06
0.03 0.04 0.04 0.05 0.07 0.09 0.11 0.13 0.11 0.08 0.08 0.07 0.06 0.07 0.07 0.10 0.11 0.11 0.09 0.10 0.11 0.09 0.08 0.07 0.05 0.05 0.05 0.05 0.05 0.06 0.06 0.06 0.05 0.05 0.06 0.06 0.07 0.08 0.08 0.08 0.08 0.07 0.07
0.02 0.03 0.04 0.04 0.05 0.07 0.09 0.10 0.09 0.09 0.09 0.10 0.08 0.08 0.08 0.11 0.11 0.11 0.11 0.12 0.12 0.10 0.08 0.08 0.06 0.05 0.04 0.04 0.04 0.05 0.05 0.05 0.05 0.05 0.05 0.06 0.07 0.08 0.08 0.09 0.10 0.10 0.10
0.02 0.02 0.03 0.04 0.05 0.05 0.06 0.09 0.10 0.08 0.09 0.11 0.11 0.10 0.09 0.11 0.11 0.11 0.11 0.11 0.11 0.11 0.09 0.08 0.08 0.07 0.05 0.05 0.04 0.04 0.05 0.05 0.05 0.05 0.05 0.05 0.06 0.07 0.07 0.08 0.09 0.09 0.11
0.02 0.03 0.03 0.03 0.05 0.05 0.06 0.08 0.09 0.08 0.09 0.09 0.11 0.11 0.10 0.09 0.09 0.08 0.09 0.10 0.10 0.11 0.10 0.10 0.09 0.07 0.07 0.07 0.06 0.05 0.05 0.05 0.04 0.04 0.04 0.04 0.05 0.06 0.06 0.07 0.07 0.08 0.09
0.01 0.02 0.02 0.02 0.03 0.04 0.06 0.06 0.08 0.08 0.08 0.09 0.10 0.11 0.11 0.09 0.07 0.06 0.07 0.09 0.09 0.10 0.10 0.10 0.11 0.09 0.08 0.08 0.06 0.05 0.05 0.05 0.05 0.05 0.04 0.04 0.04 0.06 0.07 0.07 0.08 0.08 0.09
0.00 0.01 0.02 0.02 0.02 0.02 0.03 0.04 0.06 0.07 0.07 0.08 0.09 0.10 0.10 0.08 0.07 0.06 0.06 0.08 0.08 0.07 0.07 0.08 0.09 0.10 0.09 0.08 0.06 0.04 0.03 0.03 0.04 0.04 0.05 0.05 0.05 0.05 0.06 0.07 0.07 0.07 0.08
0.00 0.01 0.01 0.01 0.01 0.01 0.01 0.02 0.02 0.04 0.05 0.06 0.06 0.06 0.06 0.05 0.05 0.05 0.05 0.06 0.07 0.06 0.06 0.06 0.08 0.08 0.08 0.07 0.05 0.04 0.04 0.03 0.03 0.03 0.03 0.04 0.04 0.06 0.06 0.06 0.06 0.06 0.05
0.00 0.00 0.00 0.01 0.01 0.01 0.01 0.01 0.01 0.01 0.02 0.03 0.03 0.03 0.03 0.03 0.04 0.04 0.04 0.05 0.06 0.05 0.04 0.04 0.05 0.05 0.05 0.05 0.04 0.04 0.05 0.05 0.04 0.03 0.03 0.03 0.04 0.05 0.06 0.06 0.07 0.08 0.06
0.00 0.00 0.00 0.00 0.01 0.01 0.00 0.00 0.00 0.01 0.01 0.01 0.02 0.02 0.01 0.02 0.02 0.03 0.03 0.04 0.05 0.04 0.03 0.03 0.03 0.03 0.04 0.04 0.04 0.04 0.04 0.04 0.05 0.05 0.04 0.03 0.04 0.04 0.05 0.06 0.06 0.08 0.07
0.00 0.00 0.00 0.00 0.00 0.01 0.01 0.00 0.00 0.00 0.01 0.00 0.01 0.01 0.01 0.01 0.02 0.02 0.02 0.04 0.04 0.03 0.03 0.02 0.02 0.02 0.03 0.03 0.04 0.04 0.04 0.04 0.04 0.05 0.05 0.04 0.04 0.04 0.05 0.06 0.06 0.07 0.08
0.00 0.00 0.00 0.00 0.00 0.00 0.00 0.00 0.00 0.00 0.00 0.00 0.00 0.00 0.00 0.01 0.01 0.02 0.02 0.03 0.04 0.04 0.04 0.03 0.02 0.02 0.03 0.03 0.03 0.04 0.04 0.04 0.04 0.04 0.04 0.04 0.05 0.05 0.06 0.07 0.08 0.08 0.08
0.00 0.00 0.00 0.00 0.00 0.00 0.00 0.00 0.00 0.00 0.00 0.00 0.00 0.00 0.00 0.00 0.01 0.01 0.02 0.02 0.03 0.04 0.04 0.04 0.03 0.03 0.03 0.03 0.03 0.04 0.04 0.04 0.04 0.04 0.04 0.04 0.05 0.05 0.06 0.06 0.08 0.08 0.09
0.00 0.00 0.00 0.00 0.00 0.00 0.01 0.00 0.00 0.00 0.00 0.00 0.00 0.00 0.00 0.00 0.00 0.01 0.01 0.02 0.03 0.03 0.05 0.05 0.05 0.04 0.04 0.04 0.04 0.04 0.05 0.05 0.05 0.04 0.04 0.05 0.06 0.06 0.06 0.06 0.07 0.08 0.10
0.00 0.00 0.00 0.00 0.00 0.00 0.00 0.00 0.00 0.00 0.00 0.00 0.00 0.00 0.00 0.00 0.00 0.00 0.01 0.01 0.02 0.02 0.03 0.05 0.05 0.04 0.04 0.05 0.04 0.03 0.05 0.06 0.06 0.06 0.05 0.05 0.06 0.07 0.06 0.05 0.06 0.07 0.09
MSLP
1019.04 1019.07 1019.03 1018.93 1018.78 1018.60 1018.39 1018.15 1017.85 1017.46 1016.94 1016.28 1015.47 1014.53 1013.49 1012.43 1011.42 1010.53 1009.82 1009.31 1009.01 1008.89 1008.93 1009.06 1009.24 1009.43 1009.61 1009.76 1009.88 1009.98 1010.08 1010.16 1010.22 1010.27 1010.28 1010.27 1010.23 1010.19 1010.18 1010.23 1010.37 1010.63 1010.99
1019.07 1019.13 1019.10 1019.01 1018.87 1018.69 1018.49 1018.25 1017.96 1017.59 1017.10 1016.45 1015.64 1014.68 1013.61 1012.49 1011.40 1010.42 1009.61 1009.03 1008.67 1008.52 1008.54 1008.69 1008.89 1009.11 1009.31 1009.48 1009.62 1009.73 1009.82 1009.89 1009.96 1010.00 1010.01 1009.99 1009.93 1009.85 1009.77 1009.73 1009.76 1009.90 1010.16
1019.12 1019.22 1019.23 1019.15 1019.02 1018.84 1018.64 1018.40 1018.12 1017.76 1017.29 1016.66 1015.87 1014.91 1013.83 1012.68 1011.53 1010.48 1009.60 1008.93 1008.50 1008.29 1008.27 1008.38 1008.57 1008.78 1008.97 1009.14 1009.27 1009.38 1009.48 1009.57 1009.65 1009.72 1009.76 1009.75 1009.69 1009.59 1009.46 1009.34 1009.26 1009.27 1009.40
1019.17 1019.33 1019.40 1019.36 1019.24 1019.07 1018.85 1018.60 1018.32 1017.96 1017.50 1016.90 1016.14 1015.22 1014.16 1013.01 1011.85 1010.77 1009.83 1009.08 1008.56 1008.27 1008.16 1008.19 1008.31 1008.46 1008.60 1008.73 1008.83 1008.92 1009.02 1009.12 1009.23 1009.34 1009.43 1009.47 1009.44 1009.34 1009.19 1009.00 1008.84 1008.73 1008.72
1019.23 1019.47 1019.60 1019.62 1019.52 1019.35 1019.11 1018.84 1018.53 1018.17 1017.72 1017.15 1016.44 1015.57 1014.57 1013.47 1012.34 1011.25 1010.28 1009.48 1008.87 1008.47 1008.24 1008.16 1008.15 1008.19 1008.23 1008.27 1008.30 1008.35 1008.42 1008.52 1008.66 1008.81 1008.95 1009.04 1009.07 1009.01 1008.86 1008.65 1008.43 1008.24 1008.13
1019.26 1019.60 1019.81 1019.89 1019.82 1019.65 1019.40 1019.09 1018.75 1018.37 1017.92 1017.38 1016.73 1015.93 1015.02 1014.00 1012.94 1011.89 1010.92 1010.08 1009.39 1008.88 1008.52 1008.28 1008.12 1007.99 1007.89 1007.80 1007.72 1007.68 1007.69 1007.76 1007.90 1008.08 1008.26 1008.42 1008.51 1008.50 1008.40 1008.21 1007.98 1007.76 1007.59
1019.25 1019.68 1019.99 1020.12 1020.10 1019.93 1019.66 1019.32 1018.94 1018.53 1018.08 1017.57 1016.97 1016.27 1015.46 1014.55 1013.58 1012.60 1011.66 1010.81 1010.06 1009.45 1008.95 1008.55 1008.20 1007.90 1007.62 1007.36 1007.14 1006.98 1006.89 1006.89 1006.99 1007.16 1007.36 1007.56 1007.71 1007.77 1007.73 1007.60 1007.42 1007.21 1007.05
1019.15 1019.68 1020.08 1020.29 1020.31 1020.16 1019.88 1019.51 1019.09 1018.64 1018.18 1017.69 1017.15 1016.54 1015.84 1015.05 1014.19 1013.31 1012.42 1011.57 1010.80 1010.10 1009.48 1008.92 1008.41 1007.92 1007.46 1007.02 1006.64 1006.32 1006.10 1005.99 1006.00 1006.11 1006.29 1006.49 1006.67 1006.80 1006.83 1006.79 1006.68 1006.55 1006.44
1018.96 1019.58 1020.06 1020.35 1020.42 1020.30 1020.01 1019.62 1019.17 1018.70 1018.23 1017.75 1017.26 1016.72 1016.12 1015.45 1014.71 1013.92 1013.10 1012.28 1011.49 1010.74 1010.03 1009.35 1008.69 1008.05 1007.42 1006.82 1006.26 1005.78 1005.40 1005.16 1005.04 1005.04 1005.14 1005.30 1005.48 1005.63 1005.72 1005.76 1005.76 1005.73 1005.72
1018.68 1019.37 1019.93 1020.29 1020.42 1020.34 1020.07 1019.67 1019.20 1018.71 1018.22 1017.75 1017.29 1016.81 1016.29 1015.72 1015.08 1014.38 1013.63 1012.86 1012.08 1011.31 1010.55 1009.79 1009.04 1008.28 1007.53 1006.79 1006.08 1005.44 1004.90 1004.49 1004.21 1004.07 1004.04 1004.10 1004.21 1004.34 1004.46 1004.56 1004.64 1004.72 1004.83
1018.33 1019.07 1019.70 1020.13 1020.32 1020.29 1020.05 1019.67 1019.20 1018.69 1018.20 1017.72 1017.27 1016.83 1016.36 1015.85 1015.28 1014.66 1013.98 1013.26 1012.51 1011.75 1010.98 1010.19 1009.40 1008.58 1007.76 1006.93 1006.12 1005.35 1004.66 1004.08 1003.63 1003.30 1003.10 1003.02 1003.01 1003.07 1003.16 1003.27 1003.40 1003.55 1003.75
1017.96 1018.74 1019.41 1019.90 1020.16 1020.19 1020.00 1019.64 1019.18 1018.68 1018.18 1017.70 1017.24 1016.81 1016.36 1015.88 1015.36 1014.78 1014.15 1013.47 1012.76 1012.04 1011.29 1010.52 1009.74 1008.92 1008.08 1007.22 1006.35 1005.50 1004.69 1003.96 1003.33 1002.82 1002.43 1002.16 1002.00 1001.92 1001.93 1001.99 1002.11 1002.28 1002.52
1017.62 1018.42 1019.13 1019.66 1019.98 1020.06 1019.92 1019.61 1019.18 1018.69 1018.19 1017.70 1017.23 1016.78 1016.33 1015.86 1015.34 1014.78 1014.18 1013.54 1012.87 1012.18 1011.48 1010.77 1010.03 1009.26 1008.45 1007.61 1006.73 1005.84 1004.95 1004.11 1003.33 1002.65 1002.07 1001.61 1001.26 1001.02 1000.88 1000.83 1000.88 1001.00 1001.23
1017.35 1018.15 1018.87 1019.44 1019.80 1019.93 1019.84 1019.58 1019.19 1018.72 1018.23 1017.74 1017.26 1016.79 1016.31 1015.81 1015.29 1014.72 1014.12 1013.50 1012.86 1012.22 1011.58 1010.92 1010.25 1009.56 1008.81 1008.02 1007.17 1006.28 1005.36 1004.45 1003.56 1002.74 1002.00 1001.36 1000.82 1000.40 1000.10 999.90 999.81 999.82 999.95
1017.16 1017.96 1018.68 1019.26 1019.64 1019.81 1019.77 1019.55 1019.20 1018.77 1018.30 1017.81 1017.32 1016.82 1016.31 1015.79 1015.23 1014.65 1014.04 1013.42 1012.80 1012.19 1011.59 1010.99 1010.39 1009.77 1009.10 1008.37 1007.58 1006.72 1005.81 1004.87 1003.92 1003.01 1002.15 1001.37 1000.68 1000.09 999.61 999.24 998.98 998.83 998.81
1017.07 1017.84 1018.54 1019.11 1019.50 1019.68 1019.68 1019.51 1019.21 1018.82 1018.37 1017.89 1017.40 1016.88 1016.35 1015.79 1015.20 1014.59 1013.96 1013.34 1012.72 1012.12 1011.55 1011.00 1010.45 1009.88 1009.28 1008.61 1007.87 1007.06 1006.17 1005.24 1004.28 1003.33 1002.41 1001.54 1000.74 1000.02 999.39 998.86 998.42 998.08 997.87
1017.05 1017.79 1018.45 1018.98 1019.35 1019.54 1019.56 1019.43 1019.17 1018.82 1018.41 1017.96 1017.47 1016.95 1016.41 1015.83 1015.21 1014.58 1013.93 1013.28 1012.65 1012.05 1011.49 1010.95 1010.42 1009.88 1009.31 1008.68 1007.98 1007.21 1006.36 1005.46 1004.52 1003.57 1002.64 1001.74 1000.88 1000.09 999.36 998.68 998.09 997.57 997.16
1017.07 1017.75 1018.35 1018.84 1019.17 1019.35 1019.38 1019.28 1019.06 1018.76 1018.39 1017.97 1017.51 1017.00 1016.46 1015.87 1015.25 1014.59 1013.93 1013.26 1012.62 1012.00 1011.42 1010.86 1010.32 1009.77 1009.20 1008.57 1007.89 1007.13 1006.31 1005.44 1004.54 1003.62 1002.71 1001.83 1000.97 1000.15 999.36 998.61 997.89 997.23 996.63
1017.08 1017.69 1018.23 1018.65 1018.95 1019.11 1019.14 1019.06 1018.88 1018.62 1018.30 1017.92 1017.50 1017.02 1016.49 1015.91 1015.29 1014.63 1013.95 1013.28 1012.61 1011.97 1011.36 1010.76 1010.18 1009.59 1008.97 1008.31 1007.60 1006.83 1006.01 1005.16 1004.28 1003.40 1002.53 1001.68 1000.86 1000.06 999.26 998.47 997.69 996.92 996.18
1017.04 1017.59 1018.05 1018.42 1018.67 1018.81 1018.84 1018.78 1018.64 1018.43 1018.15 1017.82 1017.44 1016.99 1016.48 1015.92 1015.31 1014.66 1013.98 1013.30 1012.62 1011.95 1011.30 1010.66 1010.02 1009.36 1008.68 1007.95 1007.18 1006.36 1005.50 1004.63 1003.75 1002.89 1002.05 1001.24 1000.45 999.68 998.91 998.12 997.31 996.49 995.67
1016.95 1017.43 1017.83 1018.14 1018.36 1018.48 1018.52 1018.48 1018.38 1018.21 1017.98 1017.70 1017.35 1016.93 1016.45 1015.91 1015.31 1014.67 1014.00 1013.31 1012.62 1011.94 1011.25 1010.56 1009.86 1009.13 1008.36 1007.55 1006.69 1005.79 1004.87 1003.94 1003.02 1002.13 1001.29 1000.48 999.72 998.97 998.22 997.45 996.65 995.82 994.97
1016.80 1017.22 1017.57 1017.84 1018.04 1018.16 1018.22 1018.22 1018.15 1018.02 1017.83 1017.58 1017.26 1016.86 1016.40 1015.87 1015.28 1014.65 1013.99 1013.30 1012.61 1011.91 1011.20 1010.47 1009.71 1008.92 1008.07 1007.16 1006.21 1005.21 1004.19 1003.17 1002.17 1001.22 1000.32 999.48 998.68 997.92 997.18 996.42 995.64 994.83 994.00
1016.60 1016.98 1017.29 1017.55 1017.75 1017.90 1017.98 1018.01 1017.99 1017.89 1017.74 1017.51 1017.20 1016.81 1016.35 1015.82 1015.23 1014.60 1013.94 1013.26 1012.57 1011.86 1011.14 1010.39 1009.60 1008.75 1007.84 1006.86 1005.81 1004.72 1003.58 1002.45 1001.34 1000.27 999.27 998.33 997.46 996.65 995.88 995.11 994.34 993.57 992.78
1016.36 1016.72 1017.03 1017.30 1017.52 1017.70 1017.83 1017.90 1017.91 1017.85 1017.72 1017.49 1017.19 1016.80 1016.32 1015.78 1015.18 1014.54 1013.87 1013.19 1012.50 1011.80 1011.08 1010.32 1009.52 1008.65 1007.70 1006.66 1005.55 1004.36 1003.13 1001.88 1000.63 999.43 998.28 997.22 996.23 995.31 994.46 993.66 992.88 992.13 991.41
1016.12 1016.47 1016.79 1017.09 1017.36 1017.58 1017.76 1017.87 1017.92 1017.89 1017.76 1017.54 1017.23 1016.82 1016.32 1015.75 1015.13 1014.47 1013.79 1013.10 1012.41 1011.72 1011.00 1010.26 1009.47 1008.60 1007.65 1006.60 1005.45 1004.21 1002.90 1001.54 1000.18 998.83 997.53 996.31 995.17 994.12 993.16 992.28 991.47 990.73 990.05
1015.87 1016.23 1016.59 1016.93 1017.24 1017.52 1017.74 1017.90 1017.98 1017.96 1017.85 1017.62 1017.29 1016.86 1016.34 1015.74 1015.09 1014.41 1013.71 1013.01 1012.32 1011.63 1010.94 1010.22 1009.45 1008.62 1007.69 1006.66 1005.52 1004.27 1002.92 1001.51 1000.05 998.59 997.16 995.78 994.48 993.28 992.19 991.21 990.34 989.59 988.94
Thickness
5584 5584 5585 5585 5587 5588 5590 5593 5594 5597 5600 5603 5606 5609 5613 5617 5622 5626 5632 5636 5640 5644 5647 5650 5653 5656 5657 5659 5661 5661 5661 5661 5662 5660 5660 5662 5665 5666 5668 5668 5667 5666 5665
5573 5574 5575 5575 5576 5577 5579 5582 5584 5586 5589 5592 5595 5598 5601 5605 5609 5614 5619 5623 5628 5633 5637 5639 5642 5645 5648 5650 5651 5652 5652 5653 5653 5652 5649 5648 5650 5656 5660 5660 5660 5660 5659
5562 5563 5563 5564 5566 5567 5568 5571 5573 5575 5578 5581 5583 5586 5589 5593 5597 5601 5605 5611 5617 5622 5626 5629 5632 5635 5639 5640 5642 5644 5643 5643 5644 5646 5643 5640 5641 5644 5649 5652 5652 5652 5651
5554 5553 5553 5555 5556 5556 5558 5561 5562 5565 5567 5569 5571 5574 5576 5580 5585 5589 5594 5600 5605 5609 5614 5617 5621 5625 5628 5631 5633 5636 5636 5635 5634 5635 5637 5638 5638 5635 5635 5639 5642 5643 5642
5546 5544 5544 5545 5547 5548 5550 5552 5554 5556 5558 5559 5560 5561 5564 5569 5573 5577 5582 5587 5593 5597 5602 5606 5610 5614 5618 5621 5623 5624 5625 5626 5626 5626 5627 5627 5627 5629 5627 5628 5630 5631 5633
5539 5538 5538 5538 5539 5540 5542 5544 5545 5546 5548 5549 5550 5551 5554 5557 5561 5565 5569 5575 5580 5584 5589 5594 5599 5603 5607 5611 5613 5613 5614 5616 5617 5618 5618 5618 5617 5619 5619 5620 5621 5622 5624
5532 5530 5530 5531 5531 5532 5534 5535 5537 5539 5539 5540 5541 5542 5544 5547 5550 5554 5558 5564 5569 5573 5578 5583 5588 5592 5597 5601 5602 5603 5604 5606 5606 5607 5608 5608 5609 5610 5610 5610 5611 5611 5613
5526 5524 5524 5523 5524 5525 5526 5527 5529 5530 5532 5532 5532 5534 5536 5538 5542 5545 5549 5555 5559 5564 5568 5572 5577 5582 5587 5590 5592 5593 5594 5595 5596 5597 5597 5598 5599 5599 5599 5599 5598 5598 5601
5523 5520 5519 5519 5519 5519 5520 5520 5522 5523 5523 5524 5525 5527 5529 5532 5535 5538 5541 5546 5550 5554 5558 5564 5569 5573 5575 5578 5581 5582 5584 5584 5585 5586 5587 5587 5588 5588 5587 5587 5587 5585 5586
5519 5517 5516 5515 5515 5515 5515 5516 5516 5515 5516 5518 5520 5522 5524 5526 5528 5530 5534 5538 5542 5547 5551 5556 5560 5563 5565 5568 5570 5571 5573 5573 5574 5575 5575 5576 5577 5576 5576 5575 5575 5574 5573
5516 5514 5513 5512 5512 5511 5512 5512 5512 5512 5513 5514 5516 5517 5518 5520 5522 5523 5526 5530 5535 5539 5544 5548 5553 5555 5557 5559 5561 5561 5562 5563 5563 5564 5565 5565 5566 5566 5565 5564 5564 5563 5562
5515 5513 5512 5510 5509 5508 5508 5508 5509 5509 5510 5510 5511 5512 5513 5515 5516 5518 5520 5524 5528 5532 5537 5541 5545 5546 5548 5549 5550 5551 5551 5552 5553 5554 5553 5553 5554 5554 5554 5553 5552 5551 5550
5515 5512 5511 5509 5507 5505 5505 5505 5505 5505 5506 5507 5507 5508 5508 5509 5510 5512 5515 5519 5522 5525 5528 5532 5535 5536 5537 5537 5537 5538 5539 5539 5541 5541 5541 5541 5540 5541 5541 5541 5540 5539 5538
5514 5511 5508 5506 5505 5503 5502 5502 5501 5501 5502 5502 5502 5503 5503 5504 5506 5507 5510 5513 5516 5518 5520 5523 5525 5526 5527 5526 5526 5526 5526 5527 5527 5527 5527 5527 5527 5528 5529 5528 5528 5527 5525
5514 5510 5506 5503 5502 5501 5500 5499 5498 5498 5498 5497 5497 5497 5499 5500 5502 5504 5505 5507 5509 5511 5512 5513 5515 5516 5516 5516 5515 5515 5515 5515 5514 5514 5515 5515 5515 5516 5516 5516 5515 5514 5513
5513 5510 5506 5502 5499 5498 5497 5496 5495 5494 5494 5493 5492 5493 5495 5497 5498 5499 5500 5501 5502 5502 5504 5504 5505 5505 5506 5506 5506 5505 5504 5503 5503 5502 5502 5503 5502 5503 5503 5503 5503 5501 5499
5513 5509 5504 5500 5497 5495 5494 5493 5492 5492 5491 5490 5489 5490 5491 5492 5493 5494 5494 5493 5493 5494 5494 5494 5494 5494 5495 5496 5496 5495 5493 5492 5491 5491 5491 5491 5491 5491 5491 5491 5490 5488 5486
5513 5508 5503 5499 5496 5494 5493 5491 5490 5489 5488 5487 5486 5485 5485 5486 5486 5486 5485 5485 5485 5485 5485 5486 5486 5486 5486 5487 5486 5485 5483 5482 5481 5480 5480 5480 5479 5479 5479 5479 5478 5476 5475
5511 5506 5501 5498 5495 5492 5490 5489 5487 5485 5484 5483 5481 5481 5480 5480 5479 5479 5478 5478 5478 5478 5478 5478 5478 5478 5478 5478 5477 5476 5474 5472 5471 5471 5471 5470 5469 5470 5469 5468 5467 5467 5466
5509 5504 5499 5495 5492 5490 5487 5485 5483 5481 5479 5478 5477 5476 5475 5474 5473 5473 5472 5472 5471 5470 5471 5470 5470 5470 5469 5469 5468 5467 5465 5464 5463 5462 5461 5460 5460 5460 5459 5457 5456 5456 5457
5506 5502 5497 5492 5489 5487 5484 5481 5479 5477 5475 5474 5472 5471 5469 5468 5467 5466 5465 5465 5464 5463 5462 5462 5462 5462 5461 5460 5459 5457 5455 5454 5453 5452 5452 5452 5451 5450 5449 5448 5446 5446 5447
5502 5498 5493 5489 5486 5483 5480 5477 5474 5473 5471 5469 5467 5465 5464 5462 5461 5459 5458 5457 5455 5454 5453 5453 5453 5452 5451 5450 5449 5447 5446 5444 5443 5443 5443 5443 5442 5441 5440 5438 5438 5437 5436
5497 5493 5489 5485 5482 5479 5476 5472 5470 5468 5466 5463 5461 5459 5457 5454 5453 5451 5449 5448 5447 5446 5444 5443 5442 5442 5441 5440 5439 5438 5437 5435 5434 5435 5434 5434 5433 5431 5429 5428 5428 5427 5425
5492 5488 5484 5480 5477 5474 5471 5468 5466 5463 5460 5456 5454 5452 5449 5446 5444 5442 5441 5439 5438 5436 5435 5433 5432 5431 5431 5430 5430 5429 5427 5427 5427 5426 5426 5424 5423 5421 5419 5418 5417 5416 5416
5486 5482 5478 5475 5472 5469 5466 5463 5460 5456 5453 5450 5447 5444 5441 5437 5435 5433 5431 5430 5428 5426 5424 5423 5421 5420 5420 5421 5420 5420 5420 5419 5418 5418 5416 5415 5414 5412 5410 5409 5408 5407 5407
5480 5476 5472 5469 5466 5463 5460 5456 5453 5449 5445 5442 5438 5435 5431 5428 5425 5423 5421 5421 5419 5418 5416 5414 5412 5412 5412 5413 5413 5412 5412 5412 5411 5409 5407 5407 5406 5404 5403 5402 5400 5399 5399